This is the latest recevied weather packets stored in our database for station/object K5GHS-1. If no packets are shown the sender has not sent any weather packets the latest 10 day(s).
| Time | Temp. | Humidity | Pressure | Rain* | Wind** | Luminosity | Snow |
|---|---|---|---|---|---|---|---|
| 1777765893 | 23.89° C | 36% | 1016.5 hPa | 0 mm | - | 33 W/m² | - |
| 1777764982 | 25° C | 37% | 1016.7 hPa | 0 mm | - | 37 W/m² | - |
| 1777764679 | 25° C | 37% | 1016.5 hPa | 0 mm | - | 39 W/m² | - |
| 1777764374 | 25.56° C | 37% | 1016.7 hPa | 0 mm | - | 49 W/m² | - |
| 1777764072 | 26.11° C | 34% | 1016.9 hPa | 0 mm | - | 52 W/m² | - |
| 1777763467 | 26.67° C | 32% | 1016.5 hPa | 0 mm | - | 228 W/m² | - |
| 1777761648 | 27.22° C | 32% | 1017 hPa | 0 mm | - | 328 W/m² | - |
| 1777761346 | 27.22° C | 34% | 1017.1 hPa | 0 mm | - | 354 W/m² | - |
| 1777760741 | 27.22° C | 31% | 1016.9 hPa | 0 mm | - | 337 W/m² | - |
| 1777760437 | 26.11° C | 34% | 1017 hPa | 0 mm | - | 334 W/m² | - |
| 1777760133 | 26.67° C | 34% | 1017.1 hPa | 0 mm | - | 362 W/m² | - |
| 1777759831 | 26.67° C | 33% | 1017 hPa | 0 mm | - | 122 W/m² | - |
| 1777759526 | 27.22° C | 29% | 1017.2 hPa | 0 mm | - | 428 W/m² | - |
| 1777758921 | 27.22° C | 31% | 1017.3 hPa | 0 mm | - | 471 W/m² | - |
| 1777758315 | 26.67° C | 32% | 1017.3 hPa | 0 mm | - | 457 W/m² | - |
| 1777757708 | 27.22° C | 31% | 1017.6 hPa | 0 mm | - | 493 W/m² | - |
| 1777757105 | 26.67° C | 31% | 1017.4 hPa | 0 mm | - | 492 W/m² | - |
| 1777756802 | 27.22° C | 31% | 1017.7 hPa | 0 mm | - | 375 W/m² | - |
| 1777756497 | 27.22° C | 32% | 1017.6 hPa | 0 mm | - | 488 W/m² | - |
| 1777756195 | 27.22° C | 32% | 1017.5 hPa | 0 mm | - | 518 W/m² | - |
| 1777755892 | 26.67° C | 32% | 1017.9 hPa | 0 mm | - | 508 W/m² | - |
| 1777755285 | 25.56° C | 32% | 1018.1 hPa | 0 mm | - | 542 W/m² | - |
| 1777754983 | 26.11° C | 32% | 1017.9 hPa | 0 mm | - | 557 W/m² | - |
| 1777753770 | 27.22° C | 31% | 1018.4 hPa | 0 mm | - | 567 W/m² | - |
| 1777753166 | 27.22° C | 31% | 1018.4 hPa | 0 mm | - | 602 W/m² | - |
* Rain latest hour (hover to see other rain measurements)
** Current wind speed in m/s (hover to see current wind gust speed)